TimeEST,TemperatureF,Dew PointF,Humidity,Sea Level PressureIn,VisibilityMPH,Wind Direction,Wind SpeedMPH,Gust SpeedMPH,PrecipitationIn,Events,Conditions,WindDirDegrees,DateUTC
12:54 AM,30.0,25.0,82,29.96,10.0,SE,3.5,-,N/A,,Clear,140,2012-03-02 05:54:00
1:54 AM,28.9,25.0,85,29.96,10.0,SSE,3.5,-,N/A,,Clear,150,2012-03-02 06:54:00
2:54 AM,28.9,25.0,85,29.97,10.0,SSE,4.6,-,N/A,,Clear,160,2012-03-02 07:54:00
3:54 AM,28.9,25.0,85,29.96,10.0,South,5.8,-,N/A,,Clear,170,2012-03-02 08:54:00
4:54 AM,28.9,25.0,85,29.96,10.0,SSE,5.8,-,N/A,,Clear,160,2012-03-02 09:54:00
5:54 AM,28.9,25.0,85,29.96,10.0,SSE,6.9,-,N/A,,Clear,160,2012-03-02 10:54:00
6:54 AM,30.0,25.0,82,29.95,10.0,SSE,5.8,-,N/A,,Clear,160,2012-03-02 11:54:00
7:54 AM,32.0,26.1,79,29.95,10.0,SSE,9.2,-,N/A,,Clear,150,2012-03-02 12:54:00
8:54 AM,35.1,27.0,72,29.94,10.0,SE,12.7,20.7,N/A,,Clear,140,2012-03-02 13:54:00
9:54 AM,37.9,28.0,68,29.91,10.0,SSE,17.3,20.7,N/A,,Clear,150,2012-03-02 14:54:00
10:54 AM,39.9,30.0,68,29.88,10.0,SSE,11.5,-,N/A,,Clear,150,2012-03-02 15:54:00
11:54 AM,41.0,30.9,67,29.85,10.0,SSE,11.5,19.6,N/A,,Clear,150,2012-03-02 16:54:00
12:54 PM,43.0,32.0,65,29.82,10.0,South,17.3,23.0,N/A,,Clear,170,2012-03-02 17:54:00
1:54 PM,43.0,32.0,65,29.83,10.0,SSE,13.8,20.7,N/A,,Partly Cloudy,160,2012-03-02 18:54:00
2:54 PM,44.1,33.1,65,29.77,10.0,SE,15.0,23.0,N/A,,Partly Cloudy,140,2012-03-02 19:54:00
3:54 PM,43.0,34.0,71,29.73,10.0,SE,13.8,25.3,N/A,,Overcast,140,2012-03-02 20:54:00
4:54 PM,41.0,37.0,86,29.69,7.0,SSE,19.6,28.8,0.00,Rain,Light Rain,150,2012-03-02 21:54:00
5:24 PM,39.2,37.4,93,29.63,3.0,SSE,21.9,33.4,0.01,Rain,Light Rain,150,2012-03-02 22:24:00
5:31 PM,39.2,37.4,93,29.63,5.0,SSE,21.9,31.1,0.01,Rain,Light Rain,150,2012-03-02 22:31:00
5:35 PM,39.2,37.4,93,29.63,4.0,SSE,21.9,31.1,0.01,Rain,Light Rain,150,2012-03-02 22:35:00
5:54 PM,39.9,37.9,93,29.67,3.0,SSE,21.9,32.2,0.03,Rain,Light Rain,160,2012-03-02 22:54:00
5:59 PM,39.2,37.4,93,29.61,5.0,SSE,18.4,28.8,0.00,Rain,Light Rain,150,2012-03-02 22:59:00
6:54 PM,39.9,37.9,93,29.65,8.0,SSE,19.6,31.1,0.01,,Overcast,150,2012-03-02 23:54:00
7:54 PM,39.0,37.9,96,29.59,6.0,SE,18.4,31.1,N/A,,Overcast,140,2012-03-03 00:54:00
8:11 PM,39.2,37.4,93,29.58,7.0,SSE,20.7,32.2,0.00,Rain-Thunderstorm,Light Rain,150,2012-03-03 01:11:00
8:24 PM,39.2,39.2,100,29.61,2.0,South,16.1,23.0,0.08,Rain-Thunderstorm,Heavy Thunderstorms and Rain,170,2012-03-03 01:24:00
8:34 PM,39.2,39.2,100,29.59,5.0,SSE,20.7,29.9,0.09,Rain-Thunderstorm,Light Rain,160,2012-03-03 01:34:00
8:54 PM,41.0,39.9,96,29.64,4.0,South,15.0,43.7,0.17,Rain,Rain,180,2012-03-03 01:54:00
9:05 PM,39.2,39.2,100,29.56,3.0,SE,18.4,28.8,0.05,Rain,Heavy Rain,140,2012-03-03 02:05:00
9:54 PM,41.0,39.9,96,29.55,10.0,SSE,25.3,32.2,0.07,,Mostly Cloudy,160,2012-03-03 02:54:00
10:54 PM,42.1,41.0,96,29.57,10.0,South,20.7,28.8,N/A,,Mostly Cloudy,180,2012-03-03 03:54:00
11:30 PM,42.8,41.0,93,29.52,10.0,South,13.8,-,N/A,,Overcast,180,2012-03-03 04:30:00
11:39 PM,42.8,42.8,100,29.51,10.0,South,13.8,-,N/A,,Overcast,180,2012-03-03 04:39:00
11:54 PM,44.1,42.1,93,29.54,10.0,South,12.7,-,N/A,,Overcast,180,2012-03-03 04:54:00